Hourly Data Report for October 01, 2015

All times are specified in Local Standard Time (LST). Add 1 hour to adjust for Daylight Saving Time where and when it is observed.

OTTAWA INTL A
ONTARIO

45°19'00.000" N
75°40'00.000" W
114.90 m
6106001
71628
YOW

Download Data

Hourly Data (October 2015)
Hourly Data Report for October 1, 2015
Temp Definition
°C
Dew Point Temp Definition
°C
Rel Hum Definition
%
Wind Dir Definition
10's deg

Wind Spd Definition
km/h
Visibility Definition
km
Stn Press Definition
kPa
Hmdx Definition


Wind Chill Definition


Weather Definition


TIME
00:00 Legend Double Dagger 5.7 0.5 69 2 16 24.1 101.20     LegendNANA
01:00 Legend Double Dagger 5.2 0.4 71 1 18 24.1 101.23     Clear
02:00 Legend Double Dagger 4.8 0.0 71 36 21 24.1 101.25     LegendNANA
03:00 Legend Double Dagger 4.3 -0.1 73 36 14 24.1 101.27     LegendNANA
04:00 Legend Double Dagger 3.9 -0.3 74 1 17 24.1 101.32     Clear
05:00 Legend Double Dagger 3.7 -0.3 75 36 17 24.1 101.35     LegendNANA
06:00 Legend Double Dagger 3.6 -0.2 76 36 21 24.1 101.36     LegendNANA
07:00 Legend Double Dagger 4.5 -0.1 72 1 18 24.1 101.46     Mainly Clear
08:00 Legend Double Dagger 6.5 0.4 65 1 17 24.1 101.54     LegendNANA
09:00 Legend Double Dagger 8.7 0.9 58 2 21 24.1 101.58     LegendNANA
10:00 Legend Double Dagger 11.0 0.5 48 2 23 24.1 101.57     Clear
11:00 Legend Double Dagger 11.9 0.7 46 5 20 24.1 101.54     LegendNANA
12:00 Legend Double Dagger 12.9 0.7 43 2 27 24.1 101.55     LegendNANA
13:00 Legend Double Dagger 13.0 -0.2 40 3 28 24.1 101.52     Mainly Clear
14:00 Legend Double Dagger 14.1 0.8 40 2 27 24.1 101.47     LegendNANA
15:00 Legend Double Dagger 14.5 0.1 37 3 29 24.1 101.46     LegendNANA
16:00 Legend Double Dagger 14.1 0.1 38 4 23 24.1 101.48     Mainly Clear
17:00 Legend Double Dagger 12.9 -0.3 40 3 21 24.1 101.53     LegendNANA
18:00 Legend Double Dagger 9.2 0.4 54 3 13 24.1 101.59     LegendNANA
19:00 Legend Double Dagger 9.8 0.2 51 2 18 24.1 101.66     Clear
20:00 Legend Double Dagger 9.3 0.2 53 2 20 24.1 101.69     LegendNANA
21:00 Legend Double Dagger 8.1 0.4 58 2 17 24.1 101.74     LegendNANA
22:00 Legend Double Dagger 6.8 0.3 63 3 16 24.1 101.78     Mainly Clear
23:00 Legend Double Dagger 6.3 0.2 65 2 18 24.1 101.77     LegendNANA

Notes on Data Quality.

Legend

  • E = Estimated
  • M = Missing
  • NA = Not Available
  • ‡ = Partner data that is not subject to review by the National Climate Archives
Date modified: